| time (UTC) | temp F | wind direction | speed MPH | gust MPH | rain 1hr in | rain 24hr in | rain mn in | humidity % | barometer mb |
| 20260508225045 | 62 | 210 | 0.0 | 1.0 | 0.00 | 0.00 | 0.00 | 67 | 1012.1 |
| 20260508224542 | 62 | 129 | 0.0 | 1.0 | 0.00 | 0.00 | 0.00 | 64 | 1012.3 |
| 20260508224042 | 62 | 333 | 0.0 | 1.0 | 0.00 | 0.00 | 0.00 | 65 | 1012.3 |
| 20260508223542 | 62 | 333 | 0.0 | 0.0 | 0.00 | 0.00 | 0.00 | 67 | 1012.3 |
| 20260508223042 | 62 | 333 | 0.0 | 0.0 | 0.00 | 0.00 | 0.00 | 64 | 1012.4 |
| 20260508222541 | 63 | 333 | 0.0 | 1.0 | 0.00 | 0.00 | 0.00 | 64 | 1012.4 |
| 20260508222041 | 63 | 340 | 0.0 | 1.0 | 0.00 | 0.00 | 0.00 | 65 | 1012.2 |
| 20260508221541 | 63 | 333 | 0.0 | 0.0 | 0.00 | 0.00 | 0.00 | 63 | 1012.2 |
| 20260508221042 | 63 | 333 | 0.0 | 1.0 | 0.00 | 0.00 | 0.00 | 62 | 1012.1 |
| 20260508220542 | 63 | 332 | 0.0 | 1.0 | 0.00 | 0.00 | 0.00 | 61 | 1012.2 |
| 20260508220043 | 64 | 89 | 0.0 | 0.0 | 0.00 | 0.00 | 0.00 | 64 | 1012.0 |
| 20260508215541 | 64 | 6 | 0.0 | 0.0 | 0.00 | 0.00 | 0.00 | 63 | 1012.2 |
| 20260508215040 | 64 | 6 | 0.0 | 1.0 | 0.00 | 0.00 | 0.00 | 62 | 1012.1 |
| 20260508214540 | 65 | 303 | 0.0 | 1.0 | 0.00 | 0.00 | 0.00 | 59 | 1012.2 |
| 20260508214039 | 64 | 286 | 0.0 | 0.0 | 0.00 | 0.00 | 0.00 | 61 | 1012.3 |
| 20260508213539 | 64 | 304 | 0.0 | 0.0 | 0.00 | 0.00 | 0.00 | 62 | 1012.3 |
| 20260508213047 | 65 | 304 | 0.0 | 0.0 | 0.00 | 0.00 | 0.00 | 61 | 1012.0 |
| 20260508212540 | 65 | 304 | 0.0 | 0.0 | 0.00 | 0.00 | 0.00 | 60 | 1011.9 |
| 20260508212039 | 64 | 304 | 0.0 | 0.0 | 0.00 | 0.00 | 0.00 | 60 | 1011.8 |
| 20260508211538 | 64 | 304 | 0.0 | 0.0 | 0.00 | 0.00 | 0.00 | 62 | 1011.8 |
| 20260508211038 | 65 | 304 | 0.0 | 1.0 | 0.00 | 0.00 | 0.00 | 62 | 1011.9 |
| 20260508210538 | 65 | 302 | 0.0 | 1.0 | 0.00 | 0.00 | 0.00 | 63 | 1011.9 |
| 20260508210038 | 64 | 290 | 0.0 | 1.0 | 0.00 | 0.00 | 0.00 | 63 | 1012.0 |
| 20260508205536 | 64 | 281 | 0.0 | 0.0 | 0.00 | 0.00 | 0.00 | 64 | 1012.1 |
| 20260508205037 | 64 | 281 | 0.0 | 0.0 | 0.00 | 0.00 | 0.00 | 62 | 1012.1 |
| 20260508204536 | 64 | 281 | 0.0 | 0.0 | 0.00 | 0.00 | 0.00 | 59 | 1012.2 |
| 20260508204035 | 64 | 282 | 0.0 | 0.0 | 0.00 | 0.00 | 0.00 | 59 | 1012.2 |
| 20260508203535 | 64 | 282 | 0.0 | 1.0 | 0.00 | 0.00 | 0.00 | 57 | 1012.2 |
| 20260508203043 | 64 | 127 | 0.0 | 1.0 | 0.00 | 0.00 | 0.00 | 60 | 1012.3 |
| 20260508202535 | 65 | 131 | 0.0 | 1.0 | 0.00 | 0.00 | 0.00 | 59 | 1012.3 |
| 20260508202034 | 65 | 129 | 0.0 | 1.0 | 0.00 | 0.00 | 0.00 | 59 | 1012.2 |
| 20260508201541 | 65 | 302 | 0.0 | 0.0 | 0.00 | 0.00 | 0.00 | 61 | 1012.3 |
| 20260508201034 | 64 | 302 | 0.0 | 1.0 | 0.00 | 0.00 | 0.00 | 60 | 1012.4 |
| 20260508200534 | 64 | 303 | 0.0 | 1.0 | 0.00 | 0.00 | 0.00 | 57 | 1012.5 |
| 20260508200040 | 64 | 302 | 0.0 | 1.0 | 0.00 | 0.00 | 0.00 | 59 | 1012.7 |
| 20260508195533 | 64 | 326 | 0.0 | 0.0 | 0.00 | 0.00 | 0.00 | 59 | 1012.7 |
| 20260508195033 | 64 | 326 | 0.0 | 1.0 | 0.00 | 0.00 | 0.00 | 60 | 1012.8 |
| 20260508194534 | 64 | 326 | 0.0 | 1.0 | 0.00 | 0.00 | 0.00 | 62 | 1012.9 |
| 20260508194032 | 64 | 55 | 0.0 | 0.0 | 0.00 | 0.00 | 0.00 | 61 | 1012.9 |
| 20260508193532 | 64 | 56 | 0.0 | 0.0 | 0.00 | 0.00 | 0.00 | 59 | 1013.0 |
| 20260508193032 | 64 | 106 | 0.0 | 0.0 | 0.00 | 0.00 | 0.00 | 60 | 1013.2 |
| 20260508192533 | 65 | 94 | 0.0 | 0.0 | 0.00 | 0.00 | 0.00 | 56 | 1013.3 |
| 20260508192033 | 65 | 344 | 0.0 | 0.0 | 0.00 | 0.00 | 0.00 | 57 | 1013.4 |
| 20260508191533 | 65 | 113 | 0.0 | 0.0 | 0.00 | 0.00 | 0.00 | 57 | 1013.2 |
| 20260508191036 | 65 | 68 | 0.0 | 1.0 | 0.00 | 0.00 | 0.00 | 57 | 1013.3 |
| 20260508190534 | 65 | 116 | 0.0 | 1.0 | 0.00 | 0.00 | 0.00 | 57 | 1013.5 |
| 20260508190040 | 64 | 255 | 0.0 | 1.0 | 0.00 | 0.00 | 0.00 | 58 | 1013.6 |
| 20260508185531 | 65 | 255 | 0.0 | 1.0 | 0.00 | 0.00 | 0.00 | 56 | 1013.7 |
| 20260508185032 | 66 | 133 | 0.0 | 1.0 | 0.00 | 0.00 | 0.00 | 54 | 1013.7 |
| 20260508184531 | 65 | 323 | 0.0 | 1.0 | 0.00 | 0.00 | 0.00 | 53 | 1013.7 |
| 20260508184029 | 65 | 259 | 0.0 | 1.0 | 0.00 | 0.00 | 0.00 | 54 | 1013.8 |
| 20260508183532 | 65 | 268 | 0.0 | 1.0 | 0.00 | 0.00 | 0.00 | 52 | 1013.8 |
| 20260508183035 | 65 | 314 | 0.0 | 0.0 | 0.00 | 0.00 | 0.00 | 56 | 1013.7 |
| 20260508182529 | 65 | 314 | 0.0 | 1.0 | 0.00 | 0.00 | 0.00 | 53 | 1014.0 |
| 20260508182030 | 65 | 275 | 0.0 | 2.0 | 0.00 | 0.00 | 0.00 | 51 | 1013.9 |
| 20260508181543 | 65 | 292 | 0.0 | 2.0 | 0.00 | 0.00 | 0.00 | 54 | 1014.0 |
| 20260508181027 | 65 | 138 | 0.0 | 1.0 | 0.00 | 0.00 | 0.00 | 48 | 1014.0 |
| 20260508180527 | 64 | 126 | 0.0 | 1.0 | 0.00 | 0.00 | 0.00 | 48 | 1013.9 |
| 20260508180026 | 64 | 257 | 0.0 | 1.0 | 0.00 | 0.00 | 0.00 | 48 | 1014.2 |
| 20260508175526 | 64 | 285 | 0.0 | 1.0 | 0.00 | 0.00 | 0.00 | 49 | 1014.2 |
| 20260508175025 | 64 | 284 | 0.0 | 1.0 | 0.00 | 0.00 | 0.00 | 48 | 1014.4 |
| 20260508174529 | 64 | 245 | 0.0 | 1.0 | 0.00 | 0.00 | 0.00 | 46 | 1014.6 |
| 20260508174028 | 64 | 155 | 0.0 | 0.0 | 0.00 | 0.00 | 0.00 | 49 | 1014.6 |
| 20260508173523 | 64 | 148 | 0.0 | 1.0 | 0.00 | 0.00 | 0.00 | 48 | 1014.6 |
| 20260508173023 | 64 | 143 | 0.0 | 1.0 | 0.00 | 0.00 | 0.00 | 46 | 1014.5 |
| 20260508172522 | 64 | 257 | 0.0 | 1.0 | 0.00 | 0.00 | 0.00 | 48 | 1014.7 |
| 20260508172028 | 64 | 297 | 0.0 | 1.0 | 0.00 | 0.00 | 0.00 | 49 | 1014.7 |
| 20260508171522 | 63 | 323 | 0.0 | 0.0 | 0.00 | 0.00 | 0.00 | 48 | 1014.7 |
| 20260508171023 | 63 | 266 | 0.0 | 0.0 | 0.00 | 0.00 | 0.00 | 48 | 1014.8 |
| 20260508170522 | 63 | 287 | 0.0 | 0.0 | 0.00 | 0.00 | 0.00 | 54 | 1014.9 |
| 20260508170023 | 63 | 307 | 0.0 | 1.0 | 0.00 | 0.00 | 0.00 | 49 | 1015.0 |
| 20260508165521 | 64 | 307 | 0.0 | 1.0 | 0.00 | 0.00 | 0.00 | 50 | 1015.1 |
| 20260508165026 | 64 | 269 | 0.0 | 1.0 | 0.00 | 0.00 | 0.00 | 47 | 1015.2 |
| 20260508164534 | 64 | 270 | 0.0 | 1.0 | 0.00 | 0.00 | 0.00 | 49 | 1015.3 |
| 20260508164021 | 64 | 266 | 0.0 | 1.0 | 0.00 | 0.00 | 0.00 | 48 | 1015.4 |
| 20260508163519 | 64 | 249 | 0.0 | 0.0 | 0.00 | 0.00 | 0.00 | 52 | 1015.5 |
| 20260508163019 | 64 | 252 | 0.0 | 0.0 | 0.00 | 0.00 | 0.00 | 48 | 1015.5 |
| 20260508162518 | 63 | 283 | 0.0 | 0.0 | 0.00 | 0.00 | 0.00 | 48 | 1015.5 |
| 20260508162020 | 63 | 229 | 0.0 | 0.0 | 0.00 | 0.00 | 0.00 | 58 | 1015.6 |
| 20260508161516 | 62 | 230 | 0.0 | 0.0 | 0.00 | 0.00 | 0.00 | 54 | 1015.7 |
| 20260508161017 | 62 | 230 | 0.0 | 1.0 | 0.00 | 0.00 | 0.00 | 56 | 1015.7 |
| 20260508160515 | 63 | 146 | 0.0 | 1.0 | 0.00 | 0.00 | 0.00 | 55 | 1015.8 |
| 20260508160028 | 62 | 85 | 0.0 | 1.0 | 0.00 | 0.00 | 0.00 | 60 | 1015.9 |
| 20260508155513 | 62 | 114 | 0.0 | 1.0 | 0.00 | 0.00 | 0.00 | 58 | 1016.0 |
| 20260508155012 | 61 | 251 | 0.0 | 1.0 | 0.00 | 0.00 | 0.00 | 59 | 1016.0 |
| 20260508154512 | 61 | 251 | 0.0 | 2.0 | 0.00 | 0.00 | 0.00 | 56 | 1016.2 |
| 20260508154013 | 60 | 250 | 0.0 | 2.0 | 0.00 | 0.00 | 0.00 | 59 | 1016.3 |
| 20260508153508 | 60 | 252 | 0.0 | 0.0 | 0.00 | 0.00 | 0.00 | 67 | 1016.3 |
| 20260508153008 | 60 | 252 | 0.0 | 1.0 | 0.00 | 0.00 | 0.00 | 64 | 1016.3 |
| 20260508152506 | 60 | 252 | 0.0 | 1.0 | 0.00 | 0.00 | 0.00 | 64 | 1016.4 |
| 20260508152004 | 59 | 258 | 0.0 | 0.0 | 0.00 | 0.00 | 0.00 | 72 | 1016.3 |
| 20260508151503 | 58 | 258 | 0.0 | 1.0 | 0.00 | 0.00 | 0.00 | 68 | 1016.4 |
| 20260508151003 | 57 | 259 | 0.0 | 1.0 | 0.00 | 0.00 | 0.00 | 72 | 1016.4 |
| 20260508150500 | 56 | 259 | 0.0 | 0.0 | 0.00 | 0.00 | 0.00 | 72 | 1016.4 |
| 20260508150100 | 56 | 259 | 0.0 | 0.0 | 0.00 | 0.00 | 0.00 | 70 | 1016.3 |
| 20260508145559 | 55 | 259 | 0.0 | 0.0 | 0.00 | 0.00 | 0.00 | 71 | 1016.3 |
| 20260508145057 | 55 | 129 | 0.0 | 0.0 | 0.00 | 0.00 | 0.00 | 69 | 1016.4 |
| 20260508144600 | 54 | 215 | 0.0 | 0.0 | 0.00 | 0.00 | 0.00 | 70 | 1016.5 |
| 20260508144056 | 54 | 215 | 0.0 | 0.0 | 0.00 | 0.00 | 0.00 | 73 | 1016.6 |
| 20260508143554 | 54 | 214 | 0.0 | 0.0 | 0.00 | 0.00 | 0.00 | 75 | 1016.6 |
| 20260508143057 | 54 | 214 | 0.0 | 0.0 | 0.00 | 0.00 | 0.00 | 78 | 1016.7 |
| 20260508142551 | 53 | 214 | 0.0 | 0.0 | 0.00 | 0.00 | 0.00 | 79 | 1016.7 |
| 20260508142050 | 52 | 214 | 0.0 | 0.0 | 0.00 | 0.00 | 0.00 | 80 | 1016.7 |
| 20260508141559 | 51 | 130 | 0.0 | 0.0 | 0.00 | 0.00 | 0.00 | 85 | 1016.8 |
| 20260508141050 | 51 | 130 | 0.0 | 0.0 | 0.00 | 0.00 | 0.00 | 86 | 1016.8 |
| 20260508140553 | 51 | 141 | 0.0 | 0.0 | 0.00 | 0.00 | 0.00 | 89 | 1016.8 |
| 20260508140055 | 50 | 141 | 0.0 | 0.0 | 0.00 | 0.00 | 0.00 | 88 | 1016.7 |
| 20260508135550 | 50 | 141 | 0.0 | 1.0 | 0.00 | 0.00 | 0.00 | 87 | 1016.7 |
| 20260508135049 | 49 | 141 | 0.0 | 1.0 | 0.00 | 0.00 | 0.00 | 86 | 1016.8 |
| 20260508134548 | 49 | 166 | 0.0 | 0.0 | 0.00 | 0.00 | 0.00 | 88 | 1016.8 |
| 20260508134048 | 48 | 137 | 0.0 | 0.0 | 0.00 | 0.00 | 0.00 | 90 | 1016.8 |
| 20260508133551 | 48 | 136 | 0.0 | 0.0 | 0.00 | 0.00 | 0.00 | 89 | 1016.8 |
| 20260508133051 | 48 | 219 | 0.0 | 0.0 | 0.00 | 0.00 | 0.00 | 90 | 1016.8 |
| 20260508132546 | 48 | 219 | 0.0 | 0.0 | 0.00 | 0.00 | 0.00 | 91 | 1016.9 |
| 20260508132047 | 47 | 219 | 0.0 | 0.0 | 0.00 | 0.00 | 0.00 | 92 | 1016.9 |
| 20260508131550 | 47 | 219 | 0.0 | 0.0 | 0.00 | 0.00 | 0.00 | 93 | 1016.9 |
| 20260508131046 | 47 | 220 | 0.0 | 0.0 | 0.00 | 0.00 | 0.00 | 93 | 1016.8 |
| 20260508130549 | 46 | 122 | 0.0 | 0.0 | 0.00 | 0.00 | 0.00 | 93 | 1016.7 |
| 20260508130046 | 46 | 196 | 0.0 | 0.0 | 0.00 | 0.00 | 0.00 | 93 | 1016.8 |
| 20260508125544 | 46 | 110 | 0.0 | 0.0 | 0.00 | 0.00 | 0.00 | 94 | 1016.7 |
| 20260508125043 | 46 | 110 | 0.0 | 0.0 | 0.00 | 0.00 | 0.00 | 95 | 1016.6 |
| 20260508124544 | 46 | 110 | 0.0 | 0.0 | 0.00 | 0.00 | 0.00 | 95 | 1016.6 |
| 20260508124043 | 46 | 110 | 0.0 | 0.0 | 0.00 | 0.00 | 0.00 | 95 | 1016.6 |
| 20260508123543 | 45 | 110 | 0.0 | 0.0 | 0.00 | 0.00 | 0.00 | 95 | 1016.6 |
| 20260508123042 | 45 | 110 | 0.0 | 0.0 | 0.00 | 0.00 | 0.00 | 96 | 1016.6 |
| 20260508122541 | 45 | 110 | 0.0 | 0.0 | 0.00 | 0.00 | 0.00 | 96 | 1016.6 |
| 20260508122041 | 45 | 110 | 0.0 | 0.0 | 0.00 | 0.00 | 0.00 | 96 | 1016.5 |
| 20260508121543 | 44 | 110 | 0.0 | 0.0 | 0.00 | 0.00 | 0.00 | 96 | 1016.4 |
| 20260508121041 | 44 | 110 | 0.0 | 0.0 | 0.00 | 0.00 | 0.00 | 97 | 1016.4 |
| 20260508120540 | 44 | 110 | 0.0 | 0.0 | 0.00 | 0.00 | 0.00 | 97 | 1016.3 |
| 20260508120047 | 44 | 110 | 0.0 | 0.0 | 0.00 | 0.00 | 0.00 | 97 | 1016.3 |
| 20260508115540 | 44 | 110 | 0.0 | 0.0 | 0.00 | 0.16 | 0.00 | 97 | 1016.2 |
| 20260508115038 | 44 | 110 | 0.0 | 0.0 | 0.00 | 0.16 | 0.00 | 97 | 1016.2 |
| 20260508114537 | 44 | 110 | 0.0 | 0.0 | 0.00 | 0.16 | 0.00 | 97 | 1016.0 |
| 20260508114036 | 44 | 110 | 0.0 | 0.0 | 0.00 | 0.16 | 0.00 | 97 | 1015.8 |
| 20260508113535 | 43 | 110 | 0.0 | 0.0 | 0.00 | 0.16 | 0.00 | 97 | 1015.8 |
| 20260508113035 | 43 | 110 | 0.0 | 0.0 | 0.00 | 0.16 | 0.00 | 97 | 1015.6 |
| 20260508112533 | 43 | 110 | 0.0 | 0.0 | 0.00 | 0.16 | 0.00 | 97 | 1015.7 |
| 20260508112033 | 43 | 110 | 0.0 | 0.0 | 0.00 | 0.16 | 0.00 | 97 | 1015.5 |
| 20260508111549 | 43 | 110 | 0.0 | 0.0 | 0.00 | 0.16 | 0.00 | 96 | 1015.4 |
| 20260508111034 | 43 | 110 | 0.0 | 0.0 | 0.00 | 0.16 | 0.00 | 96 | 1015.3 |
| 20260508110535 | 43 | 110 | 0.0 | 0.0 | 0.00 | 0.16 | 0.00 | 96 | 1015.2 |
| 20260508110030 | 43 | 110 | 0.0 | 0.0 | 0.00 | 0.16 | 0.00 | 96 | 1015.0 |
| 20260508105530 | 43 | 110 | 0.0 | 0.0 | 0.00 | 0.22 | 0.00 | 96 | 1014.9 |
| 20260508105030 | 43 | 110 | 0.0 | 0.0 | 0.00 | 0.22 | 0.00 | 96 | 1014.9 |
| 20260508104530 | 43 | 110 | 0.0 | 0.0 | 0.00 | 0.22 | 0.00 | 96 | 1015.0 |
| 20260508104030 | 43 | 110 | 0.0 | 0.0 | 0.00 | 0.22 | 0.00 | 96 | 1014.9 |
| 20260508103528 | 43 | 110 | 0.0 | 0.0 | 0.00 | 0.22 | 0.00 | 96 | 1014.7 |
| 20260508103032 | 43 | 110 | 0.0 | 0.0 | 0.00 | 0.22 | 0.00 | 96 | 1014.7 |
| 20260508102526 | 42 | 110 | 0.0 | 0.0 | 0.00 | 0.22 | 0.00 | 96 | 1014.5 |
| 20260508102026 | 42 | 110 | 0.0 | 0.0 | 0.00 | 0.22 | 0.00 | 96 | 1014.4 |
| 20260508101537 | 43 | 110 | 0.0 | 0.0 | 0.00 | 0.22 | 0.00 | 96 | 1014.4 |
| 20260508101025 | 43 | 110 | 0.0 | 0.0 | 0.00 | 0.22 | 0.00 | 96 | 1014.2 |
| 20260508100523 | 43 | 110 | 0.0 | 0.0 | 0.00 | 0.22 | 0.00 | 96 | 1014.1 |
| 20260508100027 | 43 | 110 | 0.0 | 0.0 | 0.00 | 0.22 | 0.00 | 96 | 1014.0 |
| 20260508095522 | 43 | 110 | 0.0 | 0.0 | 0.00 | 0.22 | 0.00 | 95 | 1013.9 |
| 20260508095022 | 43 | 110 | 0.0 | 0.0 | 0.00 | 0.22 | 0.00 | 95 | 1013.9 |
| 20260508094521 | 43 | 110 | 0.0 | 0.0 | 0.00 | 0.22 | 0.00 | 95 | 1013.9 |
| 20260508094021 | 43 | 110 | 0.0 | 0.0 | 0.00 | 0.22 | 0.00 | 95 | 1013.8 |
| 20260508093521 | 43 | 110 | 0.0 | 0.0 | 0.00 | 0.22 | 0.00 | 95 | 1013.9 |
| 20260508093020 | 43 | 110 | 0.0 | 0.0 | 0.00 | 0.22 | 0.00 | 95 | 1013.9 |
| 20260508092520 | 43 | 110 | 0.0 | 0.0 | 0.00 | 0.22 | 0.00 | 95 | 1013.8 |
| 20260508092019 | 43 | 110 | 0.0 | 0.0 | 0.00 | 0.22 | 0.00 | 95 | 1013.9 |
| 20260508091518 | 43 | 110 | 0.0 | 0.0 | 0.00 | 0.22 | 0.00 | 95 | 1013.7 |
| 20260508091019 | 43 | 110 | 0.0 | 0.0 | 0.00 | 0.22 | 0.00 | 95 | 1013.6 |
| 20260508090518 | 43 | 110 | 0.0 | 0.0 | 0.00 | 0.22 | 0.00 | 95 | 1013.7 |
| 20260508090018 | 44 | 110 | 0.0 | 0.0 | 0.00 | 0.22 | 0.00 | 95 | 1013.8 |
| 20260508085516 | 44 | 110 | 0.0 | 0.0 | 0.00 | 0.22 | 0.00 | 94 | 1013.7 |
| 20260508085016 | 44 | 110 | 0.0 | 0.0 | 0.00 | 0.22 | 0.00 | 94 | 1013.5 |
| 20260508084515 | 44 | 110 | 0.0 | 0.0 | 0.00 | 0.22 | 0.00 | 94 | 1013.5 |
| 20260508084018 | 44 | 110 | 0.0 | 0.0 | 0.00 | 0.22 | 0.00 | 94 | 1013.4 |
| 20260508083515 | 44 | 110 | 0.0 | 0.0 | 0.00 | 0.22 | 0.00 | 94 | 1013.4 |
| 20260508083013 | 44 | 110 | 0.0 | 0.0 | 0.00 | 0.22 | 0.00 | 94 | 1013.3 |
| 20260508082514 | 44 | 110 | 0.0 | 0.0 | 0.00 | 0.22 | 0.00 | 94 | 1013.2 |
| 20260508082013 | 44 | 110 | 0.0 | 0.0 | 0.00 | 0.22 | 0.00 | 94 | 1013.4 |
| 20260508081512 | 44 | 110 | 0.0 | 0.0 | 0.00 | 0.22 | 0.00 | 94 | 1013.4 |
| 20260508081014 | 44 | 110 | 0.0 | 0.0 | 0.00 | 0.22 | 0.00 | 94 | 1013.1 |
| 20260508080510 | 45 | 110 | 0.0 | 0.0 | 0.00 | 0.22 | 0.00 | 93 | 1013.0 |
| 20260508080010 | 45 | 110 | 0.0 | 0.0 | 0.00 | 0.22 | 0.00 | 93 | 1012.9 |
| 20260508075512 | 45 | 110 | 0.0 | 0.0 | 0.00 | 0.22 | 0.00 | 93 | 1013.0 |
| 20260508075009 | 45 | 110 | 0.0 | 0.0 | 0.00 | 0.22 | 0.00 | 93 | 1012.9 |
| 20260508074508 | 45 | 110 | 0.0 | 0.0 | 0.00 | 0.22 | 0.00 | 93 | 1012.9 |
| 20260508074008 | 45 | 110 | 0.0 | 0.0 | 0.00 | 0.22 | 0.00 | 93 | 1013.0 |
| 20260508073508 | 45 | 110 | 0.0 | 0.0 | 0.00 | 0.22 | 0.00 | 93 | 1012.9 |
| 20260508073007 | 45 | 110 | 0.0 | 0.0 | 0.00 | 0.22 | 0.00 | 92 | 1012.8 |
| 20260508072509 | 45 | 110 | 0.0 | 0.0 | 0.00 | 0.22 | 0.00 | 92 | 1012.6 |
| 20260508072005 | 45 | 110 | 0.0 | 0.0 | 0.00 | 0.22 | 0.00 | 92 | 1012.6 |
| 20260508071505 | 46 | 110 | 0.0 | 0.0 | 0.00 | 0.22 | 0.00 | 91 | 1012.7 |
| 20260508071003 | 46 | 110 | 0.0 | 0.0 | 0.00 | 0.22 | 0.00 | 91 | 1012.6 |
| 20260508070505 | 46 | 110 | 0.0 | 0.0 | 0.00 | 0.22 | 0.00 | 91 | 1012.6 |
| 20260508070002 | 46 | 110 | 0.0 | 0.0 | 0.00 | 0.22 | 0.00 | 90 | 1012.6 |
| 20260508065502 | 46 | 110 | 0.0 | 0.0 | 0.00 | 0.22 | 0.00 | 90 | 1012.6 |
| 20260508065001 | 46 | 110 | 0.0 | 0.0 | 0.00 | 0.22 | 0.00 | 90 | 1012.6 |
| 20260508064615 | 46 | 110 | 0.0 | 0.0 | 0.00 | 0.22 | 0.00 | 89 | 1012.6 |
| 20260508064059 | 47 | 110 | 0.0 | 0.0 | 0.00 | 0.22 | 0.00 | 89 | 1012.4 |
| 20260508064001 | 47 | 110 | 0.0 | 0.0 | 0.00 | 0.22 | 0.00 | 89 | 1012.5 |
| 20260508063558 | 47 | 110 | 0.0 | 0.0 | 0.00 | 0.22 | 0.00 | 89 | 1012.5 |
| 20260508063058 | 47 | 110 | 0.0 | 0.0 | 0.00 | 0.22 | 0.00 | 89 | 1012.5 |
| 20260508062555 | 47 | 110 | 0.0 | 0.0 | 0.00 | 0.22 | 0.00 | 88 | 1012.6 |
| 20260508062056 | 48 | 110 | 0.0 | 0.0 | 0.00 | 0.22 | 0.00 | 88 | 1012.5 |
| 20260508061557 | 48 | 110 | 0.0 | 0.0 | 0.00 | 0.22 | 0.00 | 88 | 1012.4 |
| 20260508061054 | 48 | 110 | 0.0 | 0.0 | 0.00 | 0.22 | 0.00 | 87 | 1012.4 |
| 20260508060552 | 49 | 110 | 0.0 | 0.0 | 0.00 | 0.22 | 0.00 | 86 | 1012.3 |
| 20260508060052 | 49 | 110 | 0.0 | 0.0 | 0.00 | 0.22 | 0.00 | 86 | 1012.3 |
| 20260508055551 | 49 | 110 | 0.0 | 0.0 | 0.00 | 0.32 | 0.00 | 85 | 1012.4 |
| 20260508055050 | 50 | 110 | 0.0 | 0.0 | 0.00 | 0.32 | 0.00 | 85 | 1012.4 |
| 20260508054555 | 50 | 110 | 0.0 | 0.0 | 0.00 | 0.32 | 0.00 | 86 | 1012.5 |
| 20260508054047 | 51 | 110 | 0.0 | 0.0 | 0.00 | 0.32 | 0.00 | 84 | 1012.3 |
| 20260508053546 | 51 | 109 | 0.0 | 0.0 | 0.00 | 0.32 | 0.00 | 82 | 1012.4 |
| 20260508053045 | 51 | 93 | 0.0 | 0.0 | 0.00 | 0.32 | 0.00 | 80 | 1012.4 |
| 20260508052545 | 52 | 93 | 0.0 | 0.0 | 0.00 | 0.32 | 0.00 | 79 | 1012.5 |
| 20260508052044 | 52 | 89 | 0.0 | 0.0 | 0.00 | 0.32 | 0.00 | 78 | 1012.4 |
| 20260508051552 | 51 | 89 | 0.0 | 1.0 | 0.00 | 0.32 | 0.00 | 77 | 1012.3 |
| 20260508051045 | 51 | 120 | 0.0 | 1.0 | 0.00 | 0.32 | 0.00 | 80 | 1012.3 |
| 20260508050545 | 51 | 180 | 0.0 | 0.0 | 0.00 | 0.32 | 0.00 | 79 | 1012.4 |
| 20260508050045 | 52 | 145 | 0.0 | 0.0 | 0.00 | 0.32 | 0.00 | 80 | 1012.6 |
| 20260508045543 | 52 | 145 | 0.0 | 0.0 | 0.00 | 0.36 | 0.00 | 80 | 1012.4 |
| 20260508045044 | 52 | 145 | 0.0 | 0.0 | 0.00 | 0.36 | 0.00 | 81 | 1012.3 |
| 20260508044543 | 52 | 145 | 0.0 | 0.0 | 0.00 | 0.36 | 0.00 | 80 | 1012.4 |
| 20260508044043 | 52 | 133 | 0.0 | 0.0 | 0.00 | 0.36 | 0.00 | 80 | 1012.3 |
| 20260508043541 | 52 | 131 | 0.0 | 0.0 | 0.00 | 0.36 | 0.00 | 79 | 1012.2 |
| 20260508043042 | 52 | 162 | 0.0 | 0.0 | 0.00 | 0.36 | 0.00 | 82 | 1012.1 |
| 20260508042541 | 52 | 136 | 0.0 | 1.0 | 0.00 | 0.36 | 0.00 | 79 | 1012.1 |
| 20260508042039 | 52 | 111 | 0.0 | 1.0 | 0.00 | 0.36 | 0.00 | 80 | 1012.2 |
| 20260508041539 | 52 | 94 | 0.0 | 1.0 | 0.00 | 0.36 | 0.00 | 81 | 1012.1 |
| 20260508041042 | 52 | 128 | 0.0 | 1.0 | 0.00 | 0.36 | 0.00 | 81 | 1012.2 |
| 20260508040539 | 52 | 140 | 0.0 | 0.0 | 0.00 | 0.36 | 0.00 | 80 | 1012.2 |
| 20260508040040 | 52 | 110 | 0.0 | 1.0 | 0.00 | 0.36 | 0.00 | 81 | 1012.2 |
| 20260508035537 | 51 | 110 | 0.0 | 1.0 | 0.00 | 0.36 | 0.36 | 82 | 1012.0 |
| 20260508035039 | 51 | 134 | 0.0 | 2.0 | 0.00 | 0.36 | 0.36 | 82 | 1012.3 |
| 20260508034537 | 51 | 134 | 0.0 | 2.0 | 0.00 | 0.36 | 0.36 | 84 | 1012.2 |
| 20260508034036 | 50 | 139 | 0.0 | 1.0 | 0.00 | 0.36 | 0.36 | 86 | 1012.3 |
| 20260508033535 | 50 | 87 | 0.0 | 0.0 | 0.00 | 0.36 | 0.36 | 86 | 1012.3 |
| 20260508033036 | 50 | 115 | 0.0 | 0.0 | 0.00 | 0.36 | 0.36 | 87 | 1012.3 |
| 20260508032536 | 49 | 110 | 0.0 | 1.0 | 0.00 | 0.36 | 0.36 | 88 | 1012.4 |
| 20260508032039 | 48 | 110 | 0.0 | 1.0 | 0.00 | 0.36 | 0.36 | 90 | 1012.5 |
| 20260508031635 | 48 | 131 | 0.0 | 0.0 | 0.00 | 0.36 | 0.36 | 91 | 1012.6 |
| 20260508031035 | 48 | 131 | 0.0 | 0.0 | 0.00 | 0.36 | 0.36 | 92 | 1012.5 |
| 20260508030535 | 48 | 131 | 0.0 | 0.0 | 0.00 | 0.36 | 0.36 | 92 | 1012.6 |
| 20260508030035 | 48 | 131 | 0.0 | 0.0 | 0.00 | 0.36 | 0.36 | 92 | 1012.7 |
| 20260508025537 | 48 | 131 | 0.0 | 0.0 | 0.00 | 0.39 | 0.36 | 92 | 1012.8 |
| 20260508025033 | 48 | 131 | 0.0 | 0.0 | 0.00 | 0.39 | 0.36 | 92 | 1012.7 |
| 20260508024543 | 48 | 131 | 0.0 | 0.0 | 0.00 | 0.39 | 0.36 | 92 | 1012.5 |
| 20260508024032 | 48 | 131 | 0.0 | 0.0 | 0.00 | 0.39 | 0.36 | 91 | 1012.5 |
| 20260508023531 | 48 | 131 | 0.0 | 0.0 | 0.00 | 0.39 | 0.36 | 91 | 1012.4 |
| 20260508023030 | 48 | 131 | 0.0 | 0.0 | 0.00 | 0.39 | 0.36 | 91 | 1012.3 |
| 20260508022529 | 48 | 131 | 0.0 | 0.0 | 0.00 | 0.39 | 0.36 | 90 | 1012.2 |
| 20260508022028 | 49 | 131 | 0.0 | 0.0 | 0.00 | 0.39 | 0.36 | 90 | 1012.1 |
| 20260508021526 | 49 | 131 | 0.0 | 0.0 | 0.00 | 0.39 | 0.36 | 90 | 1012.0 |
| 20260508021026 | 49 | 131 | 0.0 | 1.0 | 0.00 | 0.39 | 0.36 | 89 | 1012.0 |
| 20260508020525 | 49 | 131 | 0.0 | 1.0 | 0.00 | 0.39 | 0.36 | 88 | 1011.9 |
| 20260508020026 | 49 | 131 | 0.0 | 0.0 | 0.00 | 0.39 | 0.36 | 88 | 1011.9 |
| 20260508015525 | 49 | 131 | 0.0 | 0.0 | 0.00 | 0.41 | 0.36 | 89 | 1011.8 |
| 20260508015025 | 49 | 131 | 0.0 | 1.0 | 0.00 | 0.41 | 0.36 | 88 | 1011.9 |
| 20260508014541 | 49 | 131 | 0.0 | 1.0 | 0.00 | 0.41 | 0.36 | 88 | 1011.7 |
| 20260508014023 | 49 | 124 | 0.0 | 0.0 | 0.00 | 0.41 | 0.36 | 88 | 1011.7 |
| 20260508013522 | 49 | 124 | 0.0 | 0.0 | 0.00 | 0.41 | 0.36 | 88 | 1011.4 |
| 20260508013022 | 50 | 124 | 0.0 | 0.0 | 0.00 | 0.41 | 0.36 | 87 | 1011.5 |
| 20260508012522 | 50 | 124 | 0.0 | 0.0 | 0.00 | 0.41 | 0.36 | 87 | 1011.4 |
| 20260508012020 | 50 | 124 | 0.0 | 0.0 | 0.00 | 0.41 | 0.36 | 85 | 1011.4 |
| 20260508011521 | 50 | 124 | 0.0 | 0.0 | 0.00 | 0.41 | 0.36 | 86 | 1011.3 |
| 20260508011018 | 50 | 124 | 0.0 | 0.0 | 0.00 | 0.41 | 0.36 | 85 | 1011.2 |
| 20260508010518 | 50 | 124 | 0.0 | 0.0 | 0.00 | 0.41 | 0.36 | 85 | 1011.2 |
| 20260508010026 | 51 | 124 | 0.0 | 0.0 | 0.00 | 0.41 | 0.36 | 85 | 1011.1 |
| 20260508005522 | 51 | 123 | 0.0 | 0.0 | 0.00 | 0.47 | 0.36 | 84 | 1010.9 |
| 20260508005020 | 51 | 123 | 0.0 | 0.0 | 0.00 | 0.47 | 0.36 | 83 | 1010.8 |
| 20260508004522 | 51 | 122 | 0.0 | 1.0 | 0.00 | 0.47 | 0.36 | 83 | 1010.9 |
| 20260508004015 | 51 | 122 | 0.0 | 1.0 | 0.00 | 0.47 | 0.36 | 83 | 1010.9 |
| 20260508003513 | 52 | 123 | 0.0 | 0.0 | 0.00 | 0.47 | 0.36 | 82 | 1010.8 |
| 20260508003034 | 52 | 123 | 0.0 | 0.0 | 0.00 | 0.47 | 0.36 | 80 | 1010.7 |
| 20260508002513 | 53 | 123 | 0.0 | 0.0 | 0.00 | 0.47 | 0.36 | 80 | 1010.7 |
| 20260508002017 | 53 | 124 | 0.0 | 0.0 | 0.00 | 0.47 | 0.36 | 79 | 1010.4 |
| 20260508001510 | 53 | 262 | 0.0 | 1.0 | 0.00 | 0.47 | 0.36 | 77 | 1010.4 |
| 20260508001010 | 54 | 262 | 0.0 | 1.0 | 0.00 | 0.47 | 0.36 | 77 | 1010.3 |
| 20260508000511 | 54 | 248 | 0.0 | 1.0 | 0.00 | 0.47 | 0.36 | 75 | 1010.2 |
| 20260508000011 | 54 | 254 | 0.0 | 1.0 | 0.00 | 0.47 | 0.36 | 77 | 1010.3 |
| 20260507235509 | 54 | 87 | 0.0 | 1.0 | 0.00 | 0.62 | 0.36 | 75 | 1010.3 |
| 20260507235006 | 55 | 86 | 0.0 | 1.0 | 0.00 | 0.62 | 0.36 | 75 | 1010.3 |
| 20260507234505 | 55 | 248 | 0.0 | 1.0 | 0.00 | 0.62 | 0.36 | 73 | 1010.0 |
| 20260507234007 | 55 | 231 | 0.0 | 1.0 | 0.00 | 0.62 | 0.36 | 75 | 1010.1 |
| 20260507233503 | 55 | 248 | 0.0 | 3.0 | 0.00 | 0.62 | 0.36 | 75 | 1010.0 |
| 20260507233003 | 56 | 272 | 0.0 | 3.0 | 0.00 | 0.62 | 0.36 | 74 | 1010.0 |
| 20260507232504 | 56 | 245 | 0.0 | 2.0 | 0.00 | 0.62 | 0.36 | 75 | 1009.8 |
| 20260507232002 | 56 | 68 | 0.0 | 2.0 | 0.00 | 0.62 | 0.36 | 75 | 1009.8 |
| 20260507231502 | 56 | 131 | 0.0 | 1.0 | 0.00 | 0.62 | 0.36 | 77 | 1009.9 |
| 20260507231004 | 56 | 242 | 0.0 | 1.0 | 0.00 | 0.62 | 0.36 | 76 | 1009.7 |
| 20260507230502 | 56 | 262 | 0.0 | 1.0 | 0.00 | 0.62 | 0.36 | 79 | 1009.9 |
| 20260507230001 | 56 | 250 | 0.0 | 1.0 | 0.00 | 0.62 | 0.36 | 78 | 1009.8 |